Home   Weather   Kolding   Past weeks

Flag for Denmark Past Weather in Kolding, Denmark — Yesterday and Last 2 Weeks

Now
66 °F

Mild.


Feels Like: 66 °F
Forecast: 51 / 60 °F
Wind: 21 mph from Southwest

Location: Vamdrup

Current Time: Sep 29, 2016 at 5:23:32 AM

Latest Report: Sep 29, 2016 at 4:50 AM


Visibility: N/A

Pressure: 29.80 "Hg

Humidity: 88%

Dew Point: 63 °F

Location of KoldingLocation

Past Weather in Kolding — Graph

°F

Kolding Temperature Yesterday

Maximum temperature yesterday: 64 °F (at 1:50 AM)
Minimum temperature yesterday: 61 °F (at 3:50 AM)
Average temperature yesterday: 62 °F

High & Low Weather Summary for the Past Weeks

 TemperatureHumidityPressure
High81 °F (Sep 14, 1:50 PM)100% (Sep 20, 2:50 AM)30.27 "Hg (Sep 20, 2:50 AM)
Low37 °F (Sep 27, 7:20 AM)44% (Sep 16, 2:50 PM)29.80 "Hg (Sep 29, 4:20 AM)
Average59 °F79%30.11 "Hg
* Reported Sep 14 4:20 AM — Sep 29 4:20 AM, Kolding, Weather by CustomWeather, © 2016

Note: Actual official high and low records may vary slightly from our data, if they occured in-between our weather recording intervals... More about our weather records

Advertising

Kolding Weather History for the Previous 24 Hours

Scroll right to see more
 ConditionsComfort  
Time TempWeatherWind HumidityBarometerVisibility
4:20 AM
Thu, Sep 29
66 °FMild.21 mph88%29.80 "HgN/A
3:50 AM66 °FMild.20 mph88%29.83 "HgN/A
3:20 AM66 °FMild.20 mph88%29.83 "HgN/A
2:50 AM64 °FMild.17 mph88%29.86 "HgN/A
2:20 AM64 °FMild.16 mph83%29.86 "HgN/A
1:50 AM63 °FMild.18 mph88%29.89 "HgN/A
1:20 AM63 °FMild.16 mph83%29.89 "HgN/A
12:50 AM63 °FMild.16 mph83%29.89 "HgN/A
12:20 AM63 °FMild.15 mph83%29.92 "HgN/A
11:50 PM
Wed, Sep 28
61 °FCool.14 mph83%29.95 "HgN/A
11:20 PM61 °FCool.14 mph83%29.92 "HgN/A
10:50 PM61 °FCool.15 mph77%29.95 "HgN/A
10:20 PM61 °FCool.15 mph77%29.95 "HgN/A
9:50 PM61 °FCool.14 mph77%29.98 "HgN/A
9:20 PM61 °FCool.13 mph77%29.98 "HgN/A
8:50 PM61 °FCool.15 mph77%29.98 "HgN/A
8:20 PM61 °FCool.17 mph77%29.98 "HgN/A
7:50 PM61 °FCool.16 mph72%29.98 "HgN/A
7:20 PM61 °FCool.15 mph72%29.98 "HgN/A
6:50 PM61 °FCool.16 mph72%29.95 "HgN/A
6:20 PM61 °FCool.16 mph72%29.95 "HgN/A
4:50 PM63 °FPartly sunny.21 mph68%29.95 "HgN/A
3:50 PM63 °FPartly sunny.18 mph68%29.95 "HgN/A
2:50 PM64 °FPartly sunny.23 mph60%29.95 "HgN/A
1:50 PM64 °FPartly sunny.23 mph64%29.95 "HgN/A
12:50 PM64 °FScattered clouds.23 mph60%29.92 "HgN/A
12:20 PM63 °FScattered clouds.23 mph68%29.95 "HgN/A
11:50 AM64 °FScattered clouds.23 mph60%29.92 "HgN/A
9:50 AM63 °FPassing clouds.17 mph73%29.92 "HgN/A
8:50 AM63 °FScattered clouds.17 mph73%29.89 "HgN/A
8:20 AM63 °FScattered clouds.18 mph77%29.89 "HgN/A
7:50 AM63 °FScattered clouds.22 mph77%29.89 "HgN/A
7:20 AM63 °FMild.18 mph88%29.92 "HgN/A
6:50 AM63 °FMild.20 mph83%29.92 "HgN/A
6:20 AM63 °FMild.20 mph88%29.92 "HgN/A
5:50 AM63 °FMild.21 mph83%29.92 "HgN/A
5:20 AM63 °FMild.20 mph94%29.92 "HgN/A
Weather by CustomWeather, © 2016

See weather overviewHow to use our weather pages